Weather History for Lemoore (Abandoned) Willett A, CO

Change the Weather History Date:

Tuesday, June 10, 2014

  Actual Average (KBJC) Record (KBJC)
Temperature  
Mean Temperature 65 °F -  
Max Temperature 87 °F 75 °F 95 °F (2013)
Min Temperature 43 °F 51 °F 45 °F (1986)
Growing Degree Days 15 (Base 50)    
Moisture  
Dew Point 39 °F    
Average Humidity 45    
Maximum Humidity 88    
Minimum Humidity 14    
Precipitation  
Precipitation 0.00 in - - ()
Sea Level Pressure  
Sea Level Pressure 29.96 in    
Wind  
Wind Speed 4 mph (WSW)    
Max Wind Speed 26 mph    
Max Gust Speed 38 mph    
Visibility 10 miles    
Events Rain    
Averages and records for this station are not official NWS values.
T = Trace of Precipitation, MM = Missing Value Source: NWS Daily Summary

Daily Weather History Graph

Daily Weather History Graph

Search for Another Location

Airport:

Trip Planner

Search our weather history database for the weather conditions in past years. The results will help you decide how hot, cold, wet, or windy it might be!

Date:

Astronomy

Jun. 10, 2014 Rise Set
Actual Time 5:30 AM MDT 8:29 PM MDT
Civil Twilight 4:58 AM MDT 9:02 PM MDT
Nautical Twilight 4:16 AM MDT 9:43 PM MDT
Astronomical Twilight 3:28 AM MDT 10:32 PM MDT
Moon 5:57 PM MDT (6/10) 3:38 AM MDT (6/10)
Length of Visible Light 16h 04m
Length of Day
14h 58m
Waxing Gibbous, 92% of the Moon is Illuminated
Jun 10
Waxing Gibbous
Jun 12
Full
Jun 19
Last Quarter
Jun 27
New
Jul 5
First Quarter

Hourly Weather History & Observations

Time (MDT) Temp. Windchill Dew Point Humidity Pressure Visibility Wind Dir Wind Speed Gust Speed Precip Events Conditions
12:14 AM 50.0 °F - 41.5 °F 73% 30.06 in 10.0 mi WSW 4.6 mph - N/A   Clear
12:35 AM 49.1 °F - 42.1 °F 77% 30.06 in 10.0 mi Calm Calm - N/A   Clear
12:54 AM 48.6 °F - 41.0 °F 75% 30.05 in 10.0 mi WSW 4.6 mph - N/A   Clear
1:14 AM 47.7 °F - 41.9 °F 80% 30.04 in 10.0 mi Calm Calm - N/A   Clear
1:34 AM 47.1 °F - 39.9 °F 76% 30.04 in 10.0 mi Calm Calm - N/A   Clear
1:54 AM 47.7 °F - 40.6 °F 77% 30.03 in 10.0 mi Calm Calm - N/A   Clear
2:14 AM 45.7 °F - 39.0 °F 78% 30.03 in 10.0 mi Calm Calm - N/A   Clear
2:34 AM 46.0 °F - 41.0 °F 83% 30.03 in 10.0 mi Calm Calm - N/A   Clear
2:54 AM 46.0 °F 43.9 °F 40.5 °F 81% 30.02 in 10.0 mi WSW 4.6 mph - N/A   Clear
3:14 AM 45.0 °F - 39.4 °F 81% 30.01 in 10.0 mi Calm Calm - N/A   Clear
3:34 AM 45.5 °F - 41.0 °F 84% 30.02 in 10.0 mi Calm Calm - N/A   Clear
3:54 AM 45.7 °F - 40.5 °F 82% 30.01 in 10.0 mi Calm Calm - N/A   Clear
4:14 AM 43.7 °F 42.1 °F 39.0 °F 84% 30.02 in 10.0 mi WNW 3.5 mph - N/A   Clear
4:34 AM 43.2 °F - 38.8 °F 85% 30.02 in 10.0 mi Calm Calm - N/A   Clear
4:54 AM 44.1 °F - 39.4 °F 84% 30.01 in 10.0 mi Calm Calm - N/A   Clear
5:14 AM 43.0 °F 40.3 °F 39.4 °F 87% 30.02 in 10.0 mi SSW 4.6 mph - N/A   Clear
5:34 AM 43.7 °F 42.1 °F 40.3 °F 88% 30.02 in 10.0 mi SW 3.5 mph - N/A   Clear
5:54 AM 44.6 °F - 40.3 °F 85% 30.02 in 10.0 mi Calm Calm - N/A   Clear
6:14 AM 44.8 °F - 40.3 °F 84% 30.02 in 10.0 mi Calm Calm - N/A   Clear
6:34 AM 47.3 °F - 42.3 °F 83% 30.01 in 10.0 mi Calm Calm - N/A   Clear
6:54 AM 51.8 °F - 45.3 °F 79% 30.00 in 10.0 mi Calm Calm - N/A   Clear
7:14 AM 55.8 °F - 46.8 °F 72% 30.00 in 10.0 mi Calm Calm - N/A   Clear
7:54 AM 61.3 °F - 46.9 °F 59% 30.00 in 10.0 mi Calm Calm - N/A   Clear
8:14 AM 63.0 °F - 46.9 °F 56% 30.00 in 10.0 mi NNE 3.5 mph - N/A   Clear
8:34 AM 65.5 °F - 47.1 °F 51% 30.00 in 10.0 mi ESE 5.8 mph - N/A   Clear
9:14 AM 69.4 °F - 46.8 °F 44% 30.00 in 10.0 mi East 3.5 mph - N/A   Clear
9:34 AM 72.0 °F - 44.6 °F 37% 29.99 in 10.0 mi Calm Calm - N/A   Clear
9:54 AM 73.2 °F - 45.0 °F 36% 29.98 in 10.0 mi East 3.5 mph - N/A   Clear
10:14 AM 76.3 °F - 44.8 °F 33% 29.98 in 10.0 mi Calm Calm - N/A   Clear
10:34 AM 78.3 °F - 45.7 °F 32% 29.98 in 10.0 mi East 5.8 mph - N/A   Clear
11:14 AM 82.4 °F - 40.1 °F 22% 29.96 in 10.0 mi SE 3.5 mph - N/A   Clear
11:34 AM 83.1 °F - 41.2 °F 23% 29.96 in 10.0 mi East 6.9 mph - N/A   Clear
11:54 AM 84.4 °F - 34.5 °F 17% 29.96 in 10.0 mi East 8.1 mph - N/A   Clear
12:14 PM 85.1 °F - 32.9 °F 15% 29.95 in 10.0 mi East 5.8 mph - N/A   Clear
12:34 PM 86.2 °F - 34.2 °F 16% 29.95 in 10.0 mi ENE 6.9 mph - N/A   Clear
1:14 PM 86.9 °F - 32.4 °F 14% 29.94 in 10.0 mi ENE 4.6 mph - N/A   Clear
1:34 PM 87.4 °F - 33.6 °F 15% 29.93 in 10.0 mi Calm Calm - N/A   Clear
1:54 PM 87.8 °F - 32.9 °F 14% 29.92 in 10.0 mi ESE 6.9 mph - N/A   Clear
2:14 PM 86.9 °F - 32.0 °F 14% 29.92 in 10.0 mi Calm Calm - N/A   Clear
2:34 PM 84.4 °F - 31.5 °F 15% 29.93 in 10.0 mi North 6.9 mph - N/A   Clear
3:14 PM 77.2 °F - 36.5 °F 23% 29.97 in 10.0 mi NNW 18.4 mph 31.1 mph N/A Rain Light Rain
3:34 PM 78.8 °F - 36.3 °F 22% 29.96 in 10.0 mi WNW 17.3 mph 23.0 mph N/A   Scattered Clouds
3:54 PM 79.9 °F - 37.0 °F 21% 29.94 in 10.0 mi West 5.8 mph - N/A   Clear
4:14 PM 84.2 °F - 34.2 °F 17% 29.92 in 10.0 mi West 10.4 mph - N/A   Clear
4:34 PM 82.8 °F - 34.7 °F 18% 29.90 in 10.0 mi NW 6.9 mph - N/A   Clear
4:54 PM 83.3 °F - 35.6 °F 18% 29.89 in 10.0 mi Calm Calm - N/A   Clear
5:14 PM 83.5 °F - 33.6 °F 17% 29.89 in 10.0 mi Calm Calm - N/A   Clear
5:34 PM 84.9 °F - 34.2 °F 16% 29.88 in 10.0 mi NNW 4.6 mph - N/A   Clear
5:54 PM 82.0 °F - 37.2 °F 20% 29.88 in 10.0 mi Calm Calm - N/A   Clear
6:14 PM 80.1 °F - 37.0 °F 21% 29.89 in 10.0 mi SW 6.9 mph - N/A   Clear
6:34 PM 79.9 °F - 29.8 °F 16% 29.91 in 10.0 mi WSW 26.5 mph 38.0 mph N/A   Clear
6:54 PM 80.2 °F - 30.4 °F 16% 29.91 in 10.0 mi SW 6.9 mph 29.9 mph N/A   Scattered Clouds
7:14 PM 82.6 °F - 36.3 °F 19% 29.91 in 10.0 mi WSW 4.6 mph - N/A   Clear
7:34 PM 80.1 °F - 32.2 °F 18% 29.89 in 10.0 mi SW 9.2 mph - N/A   Clear
7:54 PM 76.8 °F - 33.8 °F 21% 29.89 in 10.0 mi SW 8.1 mph - N/A   Clear
8:14 PM 73.4 °F - 36.0 °F 26% 29.89 in 10.0 mi SSW 10.4 mph - N/A   Clear
8:34 PM 72.0 °F - 38.7 °F 30% 29.90 in 10.0 mi SW 12.7 mph - N/A   Clear
9:14 PM 72.1 °F - 36.9 °F 28% 29.91 in 10.0 mi SW 6.9 mph - N/A   Scattered Clouds
9:34 PM 69.8 °F - 37.9 °F 31% 29.92 in 10.0 mi NW 3.5 mph - N/A   Scattered Clouds
9:54 PM 69.1 °F - 38.7 °F 33% 29.91 in 10.0 mi West 4.6 mph - N/A   Clear
10:14 PM 66.9 °F - 40.1 °F 37% 29.91 in 10.0 mi SW 8.1 mph - N/A   Clear
10:34 PM 65.7 °F - 40.6 °F 40% 29.91 in 10.0 mi SW 9.2 mph - N/A   Clear
10:54 PM 66.7 °F - 38.7 °F 36% 29.91 in 10.0 mi SW 8.1 mph - N/A   Clear
11:14 PM 64.4 °F - 39.0 °F 39% 29.91 in 10.0 mi West 4.6 mph - N/A   Clear
11:34 PM 64.9 °F - 37.6 °F 36% 29.91 in 10.0 mi WSW 10.4 mph - N/A   Clear
11:54 PM 69.3 °F - 34.9 °F 28% 29.90 in 10.0 mi WSW 6.9 mph - N/A   Clear